EIN127 EIDW-EINN

Flight info

Callsign EIN127
Flight time N/A
Altitude 18000
Route PELIG6A PELIG DCT DIGAN DIGAN2E
Aircraft A339/H-SADE1E2E3GHIJ3J5M1P2RWXY/LB2D1

Departure

Time N/A
Airport Dublin Airport (EIDW)

Arrival

Time 2026-04-28 00:19
Airport Shannon Airport (EINN)
Time Latitude Longitude Altitude Speed Heading
2026-04-27 23:54 53.22997 -7.21857 16396 ft 388 kts 251°
2026-04-27 23:54 53.21979 -7.25695 16404 ft 388 kts 251°
2026-04-27 23:54 53.20885 -7.29804 16405 ft 388 kts 250°
2026-04-27 23:55 53.19788 -7.33919 16402 ft 388 kts 250°
2026-04-27 23:55 53.18624 -7.38020 16702 ft 394 kts 248°
2026-04-27 23:55 53.17386 -7.42096 17536 ft 395 kts 248°
2026-04-27 23:55 53.16129 -7.46188 18140 ft 400 kts 248°
2026-04-27 23:56 53.14867 -7.50320 18359 ft 400 kts 248°
2026-04-27 23:56 53.13611 -7.54475 18402 ft 414 kts 248°
2026-04-27 23:56 53.12321 -7.58749 18405 ft 413 kts 248°
2026-04-27 23:56 53.11030 -7.63023 18401 ft 413 kts 248°
2026-04-27 23:57 53.09739 -7.67291 18384 ft 413 kts 248°
2026-04-27 23:57 53.08447 -7.71551 18397 ft 412 kts 248°
2026-04-27 23:57 53.07157 -7.75803 18400 ft 412 kts 248°
2026-04-27 23:57 53.05865 -7.80054 18402 ft 412 kts 248°
2026-04-27 23:58 53.04589 -7.84246 18401 ft 412 kts 248°
2026-04-27 23:58 53.03299 -7.88478 18385 ft 410 kts 248°
2026-04-27 23:58 53.02010 -7.92688 17951 ft 407 kts 248°
2026-04-27 23:58 53.00734 -7.96853 17252 ft 403 kts 247°
2026-04-27 23:59 52.99471 -8.00970 16378 ft 397 kts 247°
2026-04-27 23:59 52.98223 -8.05034 15420 ft 393 kts 247°
2026-04-27 23:59 52.96987 -8.09056 14495 ft 388 kts 246°
2026-04-27 23:59 52.95762 -8.13019 13507 ft 383 kts 246°
2026-04-28 00:00 52.94579 -8.16917 12601 ft 374 kts 248°
2026-04-28 00:00 52.93741 -8.20941 11662 ft 365 kts 259°
2026-04-28 00:00 52.93362 -8.24992 10768 ft 355 kts 269°
2026-04-28 00:00 52.93184 -8.29040 10019 ft 346 kts 269°
2026-04-28 00:01 52.93017 -8.32868 9746 ft 321 kts 270°
2026-04-28 00:01 52.92863 -8.36414 9479 ft 297 kts 270°
2026-04-28 00:01 52.92720 -8.39776 8812 ft 290 kts 270°
2026-04-28 00:01 52.92596 -8.43093 8084 ft 286 kts 270°
2026-04-28 00:02 52.92489 -8.46361 7609 ft 284 kts 270°
2026-04-28 00:02 52.92399 -8.49665 7451 ft 286 kts 271°
2026-04-28 00:02 52.92332 -8.52946 7403 ft 286 kts 272°
2026-04-28 00:02 52.92292 -8.56194 7406 ft 285 kts 272°
2026-04-28 00:03 52.92266 -8.59479 7411 ft 285 kts 272°
2026-04-28 00:03 52.92254 -8.62766 7396 ft 285 kts 273°
2026-04-28 00:03 52.92092 -8.66035 7415 ft 288 kts 258°
2026-04-28 00:03 52.91437 -8.69137 7409 ft 277 kts 252°
2026-04-28 00:04 52.90772 -8.71958 7393 ft 249 kts 251°
2026-04-28 00:04 52.89605 -8.76819 7412 ft 221 kts 252°
2026-04-28 00:04 52.89041 -8.79191 7407 ft 220 kts 252°
2026-04-28 00:05 52.88489 -8.81550 7411 ft 220 kts 252°
2026-04-28 00:05 52.87941 -8.83910 7412 ft 220 kts 252°
2026-04-28 00:05 52.87391 -8.86273 7412 ft 220 kts 252°
2026-04-28 00:05 52.87026 -8.87844 7406 ft 224 kts 252°
2026-04-28 00:06 52.86263 -8.91123 7402 ft 229 kts 252°
2026-04-28 00:06 52.85674 -8.93584 7406 ft 230 kts 251°
2026-04-28 00:06 52.84848 -8.95852 7424 ft 233 kts 233°
2026-04-28 00:06 52.83821 -8.97889 7396 ft 234 kts 231°
2026-04-28 00:07 52.82767 -8.99927 7403 ft 233 kts 231°
2026-04-28 00:07 52.81711 -9.01964 7420 ft 233 kts 231°
2026-04-28 00:07 52.80662 -9.04019 7415 ft 233 kts 232°
2026-04-28 00:07 52.79624 -9.06071 7398 ft 233 kts 232°
2026-04-28 00:08 52.78579 -9.08118 7414 ft 233 kts 231°
2026-04-28 00:08 52.77533 -9.10171 7385 ft 234 kts 232°
2026-04-28 00:08 52.76482 -9.12224 7410 ft 234 kts 231°
2026-04-28 00:08 52.75434 -9.14269 7329 ft 232 kts 232°
2026-04-28 00:09 52.74417 -9.16260 7154 ft 224 kts 232°
2026-04-28 00:09 52.73440 -9.18168 6928 ft 214 kts 231°
2026-04-28 00:09 52.72490 -9.20020 6653 ft 209 kts 231°
2026-04-28 00:09 52.71552 -9.21840 6318 ft 208 kts 231°
2026-04-28 00:10 52.70628 -9.23658 5977 ft 206 kts 232°
2026-04-28 00:10 52.69711 -9.25455 5672 ft 204 kts 231°
2026-04-28 00:10 52.68796 -9.27232 5360 ft 203 kts 231°
2026-04-28 00:10 52.67884 -9.28995 5056 ft 201 kts 231°
2026-04-28 00:11 52.66998 -9.30717 4747 ft 199 kts 231°
2026-04-28 00:11 52.66032 -9.32282 4422 ft 192 kts 212°
2026-04-28 00:11 52.64776 -9.32857 3902 ft 188 kts 177°
2026-04-28 00:11 52.63578 -9.32246 3536 ft 177 kts 146°
2026-04-28 00:12 52.62614 -9.30923 3464 ft 182 kts 136°
2026-04-28 00:12 52.61652 -9.29592 3407 ft 180 kts 137°
2026-04-28 00:12 52.60672 -9.28303 3407 ft 180 kts 139°
2026-04-28 00:12 52.59683 -9.27035 3407 ft 181 kts 139°
2026-04-28 00:13 52.58692 -9.25774 3406 ft 176 kts 139°
2026-04-28 00:13 52.57750 -9.24563 3406 ft 174 kts 137°
2026-04-28 00:13 52.57090 -9.22955 3410 ft 170 kts 105°
2026-04-28 00:13 52.57102 -9.21043 3409 ft 169 kts 75°
2026-04-28 00:14 52.57591 -9.19305 3407 ft 167 kts 58°
2026-04-28 00:14 52.58268 -9.17747 3407 ft 168 kts 52°
2026-04-28 00:14 52.58994 -9.16234 3397 ft 169 kts 52°
2026-04-28 00:14 52.59714 -9.14703 3207 ft 169 kts 52°
2026-04-28 00:15 52.60423 -9.13201 2974 ft 161 kts 53°
2026-04-28 00:15 52.61090 -9.11789 2758 ft 157 kts 52°
2026-04-28 00:15 52.61742 -9.10407 2546 ft 152 kts 53°
2026-04-28 00:15 52.62396 -9.09023 2336 ft 152 kts 53°
2026-04-28 00:16 52.63045 -9.07646 2125 ft 152 kts 53°
2026-04-28 00:16 52.63694 -9.06275 1913 ft 151 kts 53°
2026-04-28 00:16 52.64334 -9.04911 1721 ft 152 kts 52°
2026-04-28 00:16 52.64977 -9.03552 1493 ft 147 kts 52°
2026-04-28 00:17 52.65583 -9.02268 1318 ft 144 kts 51°
2026-04-28 00:17 52.66185 -9.00992 1116 ft 139 kts 51°
2026-04-28 00:17 52.66789 -8.99712 915 ft 139 kts 51°
2026-04-28 00:17 52.67388 -8.98440 730 ft 140 kts 50°
2026-04-28 00:18 52.68000 -8.97133 534 ft 149 kts 51°
2026-04-28 00:18 52.68620 -8.95828 271 ft 139 kts 50°
2026-04-28 00:18 52.69235 -8.94512 94 ft 146 kts 50°
2026-04-28 00:18 52.69845 -8.93234 31 ft 143 kts 50°
2026-04-28 00:19 52.70316 -8.92232 26 ft 46 kts 52°
2026-04-28 00:19 52.70580 -8.91678 16 ft 39 kts 52°
2026-04-28 00:19 52.70722 -8.91372 14 ft 34 kts 52°
2026-04-28 00:19 52.70767 -8.91189 13 ft 14 kts 104°
2026-04-28 00:20 52.70759 -8.91169 14 ft 0 kts 122°
2026-04-28 00:20 52.70750 -8.91162 14 ft 1 kts 151°
2026-04-28 00:20 52.70736 -8.91164 14 ft 4 kts 174°
2026-04-28 00:20 52.70696 -8.91158 14 ft 8 kts 174°
2026-04-28 00:21 52.70625 -8.91144 15 ft 13 kts 173°
2026-04-28 00:21 52.70523 -8.91124 16 ft 17 kts 173°
2026-04-28 00:21 52.70398 -8.91085 16 ft 20 kts 166°
2026-04-28 00:21 52.70259 -8.91028 17 ft 18 kts 166°
2026-04-28 00:22 52.70206 -8.91013 17 ft 2 kts 179°
2026-04-28 00:22 52.70154 -8.91030 17 ft 12 kts 199°
2026-04-28 00:22 52.70063 -8.91083 18 ft 16 kts 199°
2026-04-28 00:22 52.69948 -8.91148 20 ft 19 kts 199°
2026-04-28 00:23 52.69812 -8.91225 24 ft 22 kts 199°
2026-04-28 00:23 52.69658 -8.91312 27 ft 25 kts 199°
2026-04-28 00:23 52.69507 -8.91394 28 ft 21 kts 197°
2026-04-28 00:23 52.69365 -8.91469 29 ft 20 kts 198°
2026-04-28 00:24 52.69309 -8.91499 29 ft 2 kts 198°
2026-04-28 00:24 52.69257 -8.91547 27 ft 14 kts 223°
2026-04-28 00:24 52.69257 -8.91610 31 ft 7 kts 287°
2026-04-28 00:24 52.69295 -8.91676 28 ft 10 kts 311°
2026-04-28 00:25 52.69358 -8.91748 28 ft 13 kts 336°
2026-04-28 00:25 52.69432 -8.91849 27 ft 15 kts 292°
2026-04-28 00:25 52.69420 -8.91951 26 ft 8 kts 228°
2026-04-28 00:25 52.69392 -8.91957 27 ft 2 kts 176°
2026-04-28 00:26 52.69366 -8.91959 27 ft 0 kts 184°